Weather in Zerenda

Kazakhstan     52°54′24″N   69°09′01″E
temp.,
°C
wind,
m/s
gust,
m/s
humid.,
%
clouds,
%
prec.,
mm/h
press.,
hPa
HPBL,
m
14 may, fri
fri1400:00+15nnw33607 0.0 102239
03:00+15ene116799 0.0 102311
06:00+12ne23860 0.0 102547
09:00+17ne34670 0.0 1026542
12:00+20ne34465 0.0 10271479
15:00+22nne33355 0.0 10261898
18:00+23n22325 0.0 10261845
21:00+19nnw11445 0.0 102611
15 may, sat
sat1500:00+16s22508 0.0 102718
03:00+14ssw34595 0.0 102649
06:00+13sw46645 0.0 102688
09:00+20wsw57465 0.0 1026374
12:00+24w33320 0.0 10241367
15:00+26wnw34280 0.0 10232380
18:00+27w35284 0.0 10222639
21:00+22sw444338 0.0 102147
16 may, sun
sun1600:00+17se1160100 0.3 102132
03:00+17wsw396058 0.8 1020155
06:00+16wsw410661 0.8 1020173
09:00+22wnw58485 0.0 1020330
12:00+27nw57335 0.0 10201513
15:00+28nw56295 0.0 10192493
18:00+28nw57286 0.0 10192786
21:00+23w344614 0.0 101952
17 may, mon
mon1700:00+20wnw22515 0.0 101914
03:00+18wnw22496 0.0 102011
06:00+18wsw22515 0.0 102111
09:00+24wnw34385 0.0 1021273
12:00+28wnw44275 0.0 10201760
15:00+30wnw552370 0.0 10193441
18:00+30wnw45227 0.0 10172789
21:00+21nnw224662 0.1 101815
18 may, tue
tue1800:00+18nnw3663100 0.2 1018170
03:00+18sw335818 0.1 101733
06:00+17sw34575 0.2 101661
09:00+23nw46425 0.0 1015489
12:00+27nw563299 0.0 10141340
15:00+28nw573088 0.0 10132204
18:00+26nnw9103360 0.0 10122014
21:00+22wsw334668 0.0 101130